Location: Unnamed
(48.6007°N, 2.4808°E)
Time: 19:23:14
(UTC+02:00)

DX 1 - Pass Details

Date: 10 April 2023
Orbit: 615 x 625 km, 98.4° (Epoch: 04 June)

Event Time Altitude Azimuth Distance (km) Brightness Sun altitude
Rises 00:11:41 0° 15° (NNE) 2,900 ? -29.5°
Reaches altitude 10° 00:13:53 10° 18° (NNE) 1,990 ? -29.7°
Enters shadow 00:15:51 26° 23° (NNE) 1,214 ? -29.9°
